Presure
181 182 183 186 191 164 192 198 184 193 199 206 196 219 204 244 254 247 247 243 248 235 217 209 210 211 213 226 234 229 227 230 230 221 214 206 208 201 196 198 201 211 203
181 179 187 187 183 191 185 191 185 194 203 189 195 191 194 200 211 209 230 252 249 238 236 230 234 235 230 231 226 222 215 219 213 208 202 210 205 202 203 207 208 207 211
183 176 174 189 181 163 174 186 193 195 192 190 205 190 193 193 193 193 215 228 196 209 241 236 233 226 220 220 220 219 216 216 214 213 210 212 214 216 214 210 212 232 232
182 184 183 174 189 185 183 177 182 182 183 181 196 186 212 185 186 193 199 191 197 213 217 204 199 184 192 213 219 228 235 235 231 232 218 212 211 182 183 186 190 191 195
180 181 178 173 192 189 178 179 182 176 180 180 189 193 200 205 181 207 196 182 183 199 194 196 205 223 213 200 204 211 207 204 201 203 203 203 202 203 203 204 205 205 199
193 191 189 187 191 171 187 181 189 182 185 190 199 202 195 195 207 199 198 193 210 187 197 192 213 199 196 202 206 206 206 218 218 217 211 204 196 194 195 194 194 193 196
183 183 176 176 180 189 182 182 187 179 188 193 183 194 202 192 198 195 200 197 206 195 198 204 201 198 196 213 203 201 214 200 190 196 197 197 144 215 219 209 203 202 202
182 184 188 190 190 182 167 187 188 184 193 181 192 204 199 197 199 203 205 188 204 198 203 185 190 203 194 205 196 196 205 208 213 200 200 211 206 204 201 207 208 206 210
190 190 192 192 191 192 191 147 182 190 198 203 207 193 180 198 205 189 201 219 196 196 184 194 193 221 197 200 182 199 201 206 202 204 203 190 192 201 210 214 207 220 219
209 205 203 203 203 201 200 196 211 207 204 199 202 199 193 199 203 191 200 205 206 202 197 206 218 218 214 204 212 205 202 205 205 209 202 211 203 207 211 220 249 233 223
215 215 214 212 211 217 216 212 204 197 204 204 201 201 206 209 208 200 198 196 204 217 234 229 221 217 208 208 206 194 201 201 206 205 197 202 217 209 220 229 213 247 229
215 217 227 225 213 212 210 212 206 175 189 214 213 213 208 198 195 199 202 200 205 220 214 206 193 196 199 196 197 200 198 203 199 208 202 213 215 212 234 200 216 200 208
214 210 226 232 231 228 225 218 215 213 197 202 202 203 198 200 206 203 200 202 210 200 209 216 208 221 205 206 200 214 213 211 209 212 209 200 230 223 188 204 201 214 211
223 229 231 209 229 223 216 211 213 218 215 208 207 203 199 213 212 222 231 235 212 219 175 197 203 216 211 211 199 211 234 222 219 193 223 234 221 188 230 228 217 182 210
220 226 220 218 211 215 219 216 205 208 210 209 220 224 225 213 228 236 228 225 222 218 207 204 210 211 211 200 191 208 209 181 213 208 212 214 192 197 207 227 210 217 219
226 226 216 213 220 221 208 212 218 220 214 227 225 249 247 250 241 233 208 225 223 221 210 214 214 203 215 197 200 209 212 218 224 218 204 210 225 221 211 223 218 192 220
238 235 240 240 237 235 232 223 227 253 250 246 237 258 274 277 296 330 338 266 249 239 230 232 217 230 229 218 217 228 233 239 220 235 229 210 225 236 226 236 224 224 223
240 241 244 193 257 257 256 173 241 250 181 209 297 307 347 346 308 295 301 288 292 292 301 261 267 261 255 248 255 261 253 259 241 242 232 234 227 236 238 226 229 236 233
249 255 259 264 214 214 272 240 220 278 275 339 403 335 326 323 323 337 341 308 288 272 282 283 270 260 271 248 251 251 252 249 229 246 251 251 243 255 241 214 234 225 239
269 265 265 277 296 222 162 282 284 250 212 305 351 322 135 309 312 321 359 301 297 270 256 266 277 241 259 242 231 241 239 241 262 258 262 251 257 263 232 244 237 232 265
265 311 293 275 272 274 125 127 307 314 305 282 345 322 305 288 290 299 315 305 282 287 267 262 265 264 251 243 243 256 238 260 267 260 244 237 237 251 247 250 247 240 249
269 272 276 281 291 312 310 261 306 296 291 276 322 313 304 296 295 286 315 296 289 292 274 258 273 269 269 259 249 252 251 244 250 242 252 248 244 227 243 249 257 253 264
300 314 308 311 310 305 300 289 288 284 302 320 301 306 307 296 305 280 310 278 288 281 278 269 260 269 266 259 267 260 249 249 256 261 257 250 255 256 252 260 264 268 255
314 262 303 300 295 285 322 323 330 313 308 316 305 300 311 296 295 306 285 304 275 282 280 271 279 284 271 275 273 265 260 262 253 262 265 266 264 252 253 262 268 261 247
360 322 313 340 338 333 325 336 322 319 305 302 306 303 308 299 299 285 299 287 283 259 291 260 259 261 279 271 270 274 276 255 265 258 259 262 262 255 269 258 269 270 310
347 335 332 325 321 314 308 306 303 307 325 337 327 316 310 305 294 297 324 286 304 314 291 282 278 270 290 284 308 285 276 276 263 275 279 271 260 271 288 325 333 326 329
Wind_Speed
30 30 31 28 25 32 27 30 28 29 29 27 24 28 30 23 28 35 41 49 51 66 78 79 82 82 82 80 72 70 69 68 55 63 62 66 62 66 70 69 70 72 70
33 34 34 33 31 27 27 31 31 29 30 30 28 31 31 31 35 35 30 29 41 46 48 51 53 51 51 54 59 59 62 63 62 64 71 66 66 70 72 73 74 74 72
37 38 38 37 36 36 34 33 34 34 35 36 36 36 36 35 36 37 36 37 41 41 36 44 50 53 56 55 57 58 60 61 61 60 63 67 68 69 71 71 72 69 63
46 40 40 41 38 36 35 38 37 36 38 38 41 42 39 41 41 39 39 40 43 39 43 50 52 54 56 50 50 50 49 49 49 48 50 54 55 67 70 72 71 74 74
46 48 43 40 45 42 39 41 43 45 44 44 44 45 45 44 47 46 45 47 48 44 47 50 48 43 52 58 57 56 56 57 60 59 59 60 61 65 69 72 72 72 75
58 58 56 54 49 45 44 42 45 48 51 50 52 50 48 49 49 49 49 48 52 52 51 52 46 53 58 56 54 56 56 53 57 61 62 64 68 68 72 74 75 78 79
57 56 48 48 52 55 49 51 53 49 54 53 51 52 50 53 53 54 54 54 56 54 55 57 54 53 56 57 59 58 56 61 64 66 66 68 55 65 69 77 80 82 82
60 61 63 66 66 58 51 62 59 54 64 53 59 58 52 54 56 57 58 57 59 60 60 62 61 64 62 64 60 62 61 62 62 67 69 64 70 73 76 77 80 83 86
68 69 70 69 68 70 71 41 59 67 70 68 64 58 58 60 67 62 61 60 60 63 65 68 68 72 67 69 68 66 65 64 68 70 71 75 76 77 79 80 80 82 85
71 72 74 76 75 74 73 73 72 72 67 65 64 65 64 70 71 64 69 67 64 68 69 72 76 73 73 74 76 72 71 71 72 73 77 80 82 83 83 86 81 77 78
74 74 74 75 75 73 73 73 72 69 73 73 72 71 74 71 73 71 74 74 75 81 74 69 65 68 71 73 75 76 79 79 82 82 80 85 94 78 84 75 82 85 80
71 72 70 71 74 76 77 77 76 69 70 78 77 74 74 71 74 77 79 81 85 86 71 69 69 69 71 73 75 81 83 88 85 91 84 98 87 85 68 74 90 87 76
72 68 78 79 81 80 79 77 77 76 72 78 77 78 76 77 84 84 83 85 89 82 84 79 76 78 77 83 84 94 95 93 94 97 93 81 91 79 69 88 82 96 89
80 84 84 71 76 74 72 73 76 79 80 79 83 84 80 90 88 96 102 94 87 91 73 81 81 85 86 97 82 90 91 91 92 83 102 89 97 72 96 92 97 71 98
86 84 80 79 73 80 84 82 73 77 83 84 100 104 105 86 100 102 96 99 93 94 86 94 92 94 95 90 79 95 85 76 102 83 92 87 79 88 101 99 97 105 110
98 94 87 83 89 90 78 85 94 98 94 107 104 112 107 107 103 98 86 98 94 95 95 101 105 90 102 81 91 101 104 103 105 103 93 96 104 106 102 110 105 81 113
100 97 100 104 103 103 102 92 99 109 111 108 103 104 108 107 104 94 88 108 105 106 106 104 99 113 112 111 107 117 122 122 94 111 109 92 109 111 112 113 113 115 117
98 100 102 64 106 105 105 50 87 81 55 66 93 89 77 78 87 89 85 89 91 90 92 102 103 108 113 111 110 105 104 104 106 108 109 117 109 117 121 112 117 123 121
101 104 104 106 74 74 102 73 66 89 90 66 49 69 74 75 73 70 74 84 86 91 83 79 85 93 83 101 100 99 102 106 104 114 114 112 117 118 119 105 120 116 127
103 101 100 104 98 68 58 90 87 59 47 64 55 62 45 69 69 66 68 75 81 86 90 89 81 97 93 99 102 107 106 109 116 115 112 113 115 122 111 121 117 116 142
96 91 94 93 92 91 31 34 79 73 68 66 53 60 65 68 68 67 70 79 81 86 90 93 93 99 101 108 110 116 105 112 105 105 111 107 110 121 121 124 126 127 129
90 92 92 92 90 83 82 72 77 72 70 69 61 62 65 68 69 71 72 79 80 87 95 94 97 101 104 110 108 114 113 109 109 108 116 116 113 97 119 122 133 124 130
88 84 85 84 82 82 80 78 78 77 74 66 68 65 67 71 69 75 74 77 85 87 92 98 97 103 107 107 115 116 109 110 118 126 126 116 123 128 123 130 133 134 121
83 71 84 83 84 81 72 72 67 68 73 68 67 69 72 71 73 75 79 83 85 92 97 97 104 110 114 115 121 119 118 123 113 126 134 135 133 117 113 123 139 128 104
62 83 83 63 61 58 55 56 58 65 71 70 70 71 73 71 72 75 80 81 86 87 102 92 95 98 119 120 119 125 130 110 123 112 115 120 124 115 135 119 141 132 139
49 50 52 53 53 53 52 52 53 56 62 71 76 74 70 70 74 76 79 82 82 85 88 97 101 102 103 101 110 129 131 129 118 134 137 132 119 139 136 129 123 127 125
Wind_Direction
261 267 267 276 286 259 292 297 275 291 295 292 271 295 283 284 272 268 265 267 269 264 262 265 266 267 268 270 271 271 271 273 268 273 273 277 278 279 281 283 285 287 287
255 261 269 273 274 283 281 290 281 292 295 281 290 277 282 283 284 277 276 281 268 265 265 266 267 268 269 268 268 271 274 272 272 271 278 278 279 279 283 285 285 285 286
253 253 256 271 266 259 265 281 288 293 289 286 295 280 280 282 283 281 294 290 277 273 277 272 273 272 273 276 277 277 275 275 276 277 277 279 281 282 283 283 284 284 285
264 263 262 258 274 269 273 272 280 280 282 280 291 274 290 275 275 278 279 278 285 288 284 280 280 277 279 281 281 280 281 283 283 281 278 279 280 284 286 286 289 289 290
263 265 254 253 275 270 267 272 275 270 272 272 286 285 289 287 268 283 273 273 276 279 280 282 284 284 281 280 279 279 280 280 280 281 282 283 284 284 286 287 288 288 289
262 266 270 272 274 255 276 277 277 275 282 286 289 287 284 284 287 283 281 276 286 276 275 279 284 280 280 281 281 283 285 290 288 287 284 282 281 282 281 283 284 284 286
263 265 265 268 273 276 271 272 278 270 281 281 277 281 283 283 284 282 282 283 284 281 282 284 280 276 279 284 281 283 285 285 283 286 286 286 290 289 287 287 287 287 288
263 265 265 268 272 273 261 276 276 272 282 270 281 285 280 280 281 284 281 281 283 283 284 280 280 284 278 286 279 281 287 286 283 283 286 286 284 282 284 288 286 287 286
259 263 265 267 268 270 272 266 270 277 280 281 282 273 268 283 287 274 279 283 280 280 280 281 281 287 283 283 278 283 285 287 285 286 285 283 284 286 290 290 284 285 283
259 260 262 265 266 269 270 272 274 275 278 280 281 281 281 283 283 275 281 282 281 279 278 284 284 280 279 284 284 285 285 287 286 291 287 293 288 289 288 290 284 282 282
263 263 263 265 267 269 270 272 274 275 278 276 278 278 278 275 276 280 281 281 282 288 280 279 276 277 279 279 282 285 288 289 291 290 286 290 293 285 287 289 280 294 288
264 265 263 263 264 265 267 270 275 270 274 274 274 275 276 276 277 278 281 283 286 288 282 278 274 276 278 280 283 286 285 287 285 289 286 293 287 290 283 290 294 296 295
267 265 264 262 264 264 266 267 268 271 273 275 273 272 271 272 276 275 276 278 281 282 286 285 284 284 284 285 281 286 286 289 289 291 292 289 289 289 283 295 297 290 297
271 271 269 267 268 267 267 267 271 278 277 274 274 272 269 275 273 279 283 284 281 285 277 279 282 284 288 284 282 283 282 287 288 290 291 282 283 291 287 278 282 288 298
276 273 273 274 272 275 276 275 271 273 273 272 277 279 278 274 278 278 280 276 276 276 277 277 278 279 275 279 283 281 278 285 288 289 284 282 289 294 291 278 292 290 292
271 267 270 270 270 269 268 271 273 273 272 273 273 273 272 270 269 270 270 272 270 269 270 268 272 276 273 278 278 278 281 282 280 275 282 283 276 273 288 283 288 292 293
269 269 269 268 269 270 272 272 272 274 274 273 272 272 271 271 270 266 261 265 265 265 265 266 266 269 268 271 275 274 274 275 275 273 277 280 276 272 282 277 285 287 290
271 273 274 268 273 273 273 266 275 277 272 272 274 272 265 265 268 267 264 262 261 259 254 262 262 263 266 267 267 267 268 263 271 273 276 276 278 278 276 283 283 281 286
272 274 275 277 269 272 279 276 279 279 277 278 275 264 264 265 265 263 255 256 257 258 258 258 259 262 259 263 267 265 264 264 276 272 271 269 272 271 273 289 281 290 285
275 276 276 278 281 280 272 282 283 288 285 277 268 265 291 263 263 261 262 252 251 258 260 257 254 264 254 262 274 269 271 272 268 268 266 268 267 267 281 279 285 287 278
274 279 278 278 279 281 289 293 285 285 280 271 273 264 262 263 263 261 252 248 253 249 258 261 257 253 259 267 271 263 274 268 266 267 275 279 281 272 278 280 283 286 288
274 276 278 279 280 281 282 281 283 280 277 270 271 266 262 262 258 260 253 247 249 249 250 260 254 253 254 259 269 267 269 275 273 279 272 276 282 284 286 285 285 288 290
276 277 277 279 280 281 281 280 279 277 277 271 269 268 266 261 260 259 256 257 251 250 250 253 261 258 258 262 258 265 273 273 271 268 273 280 281 281 284 286 288 288 293
276 279 278 279 280 279 278 275 271 269 272 271 269 267 271 262 262 260 257 255 258 255 253 259 257 257 257 258 257 263 268 268 276 273 273 275 278 285 286 286 285 292 294
273 273 274 274 272 275 277 274 273 267 266 271 271 270 270 267 267 260 262 259 260 267 256 267 269 269 259 261 264 262 264 276 274 283 283 282 281 287 286 291 288 290 286
272 272 273 274 275 276 278 280 280 280 275 272 270 272 273 271 265 273 275 265 267 271 270 265 266 269 268 272 270 266 268 270 276 275 277 281 286 283 283 284 287 288 289